FJXQN LFKJ-LFKB

Flight info

Callsign FJXQN
Flight time 0h 25m
Altitude 13000
Route BTA
Aircraft SF50/L-BDGRSWY/LB2U2

Departure

Time 2026-05-01 14:00
Airport Ajaccio Napoléon Bonaparte airport (LFKJ)

Arrival

Time 2026-05-01 14:25
Airport Bastia-Poretta International airport (LFKB)
Time Latitude Longitude Altitude Speed Heading
2026-05-01 13:49 41.92207 8.79245 15 ft 0 kts 349°
2026-05-01 13:54 41.92205 8.79271 15 ft 5 kts 103°
2026-05-01 13:55 41.92201 8.79333 15 ft 8 kts 92°
2026-05-01 13:55 41.92206 8.79424 15 ft 11 kts 77°
2026-05-01 13:55 41.92233 8.79500 15 ft 9 kts 32°
2026-05-01 13:55 41.92299 8.79525 15 ft 10 kts 45°
2026-05-01 13:56 41.92307 8.79650 15 ft 17 kts 95°
2026-05-01 13:56 41.92297 8.79828 15 ft 18 kts 85°
2026-05-01 13:56 41.92403 8.79916 15 ft 20 kts 24°
2026-05-01 13:56 41.92526 8.79990 15 ft 19 kts 24°
2026-05-01 13:57 41.92640 8.80063 16 ft 17 kts 25°
2026-05-01 13:57 41.92735 8.80122 16 ft 13 kts 25°
2026-05-01 13:57 41.92796 8.80177 16 ft 9 kts 42°
2026-05-01 13:57 41.92842 8.80235 16 ft 10 kts 44°
2026-05-01 13:58 41.92896 8.80307 16 ft 12 kts 45°
2026-05-01 13:58 41.92954 8.80395 16 ft 12 kts 62°
2026-05-01 13:58 41.92965 8.80469 17 ft 0 kts 98°
2026-05-01 13:59 41.92965 8.80470 17 ft 1 kts 101°
2026-05-01 13:59 41.92908 8.80547 19 ft 17 kts 179°
2026-05-01 13:59 41.92795 8.80487 18 ft 17 kts 203°
2026-05-01 13:59 41.92477 8.80290 14 ft 91 kts 204°
2026-05-01 14:00 41.91764 8.79852 407 ft 127 kts 210°
2026-05-01 14:00 41.90929 8.79185 1113 ft 153 kts 226°
2026-05-01 14:00 41.90404 8.77925 2047 ft 153 kts 243°
2026-05-01 14:00 41.89848 8.76665 2588 ft 165 kts 238°
2026-05-01 14:01 41.89238 8.75320 3270 ft 171 kts 239°
2026-05-01 14:01 41.88626 8.73928 3940 ft 177 kts 239°
2026-05-01 14:01 41.87993 8.72485 4622 ft 180 kts 240°
2026-05-01 14:01 41.87353 8.71028 5315 ft 184 kts 239°
2026-05-01 14:02 41.86694 8.69524 5949 ft 190 kts 239°
2026-05-01 14:02 41.86160 8.67891 6549 ft 194 kts 261°
2026-05-01 14:02 41.86171 8.66102 7189 ft 191 kts 285°
2026-05-01 14:02 41.86672 8.64495 7851 ft 185 kts 309°
2026-05-01 14:03 41.87551 8.63286 8517 ft 179 kts 328°
2026-05-01 14:03 41.88543 8.62263 9166 ft 180 kts 326°
2026-05-01 14:03 41.89521 8.61220 9852 ft 179 kts 329°
2026-05-01 14:03 41.90628 8.60526 10469 ft 175 kts 348°
2026-05-01 14:04 41.91837 8.60302 10920 ft 183 kts
2026-05-01 14:04 41.93170 8.60642 10943 ft 209 kts 20°
2026-05-01 14:04 41.94535 8.61557 10947 ft 228 kts 28°
2026-05-01 14:04 41.95980 8.62573 10940 ft 240 kts 27°
2026-05-01 14:05 41.97491 8.63608 10942 ft 247 kts 27°
2026-05-01 14:05 41.99028 8.64671 10941 ft 250 kts 27°
2026-05-01 14:05 42.00584 8.65752 10943 ft 253 kts 27°
2026-05-01 14:05 42.02154 8.66845 10942 ft 255 kts 27°
2026-05-01 14:06 42.03739 8.67942 10941 ft 257 kts 27°
2026-05-01 14:06 42.05332 8.69044 10943 ft 258 kts 27°
2026-05-01 14:06 42.06930 8.70155 10943 ft 259 kts 27°
2026-05-01 14:06 42.08530 8.71270 10936 ft 259 kts 27°
2026-05-01 14:07 42.10139 8.72389 10930 ft 260 kts 27°
2026-05-01 14:07 42.11748 8.73511 10928 ft 260 kts 27°
2026-05-01 14:07 42.13340 8.74612 10932 ft 261 kts 27°
2026-05-01 14:08 42.16579 8.76872 10928 ft 263 kts 27°
2026-05-01 14:08 42.18204 8.78010 10923 ft 264 kts 27°
2026-05-01 14:08 42.19840 8.79149 10900 ft 264 kts 27°
2026-05-01 14:08 42.21470 8.80285 10918 ft 264 kts 27°
2026-05-01 14:09 42.23094 8.81437 10906 ft 263 kts 30°
2026-05-01 14:09 42.24360 8.83201 10907 ft 265 kts 56°
2026-05-01 14:09 42.25224 8.85403 10903 ft 266 kts 64°
2026-05-01 14:09 42.25770 8.87801 10905 ft 269 kts 75°
2026-05-01 14:10 42.25994 8.90318 10913 ft 270 kts 81°
2026-05-01 14:10 42.26204 8.92846 10909 ft 271 kts 78°
2026-05-01 14:10 42.26508 8.95361 10913 ft 271 kts 77°
2026-05-01 14:10 42.26813 8.97860 10920 ft 271 kts 77°
2026-05-01 14:11 42.27096 9.00371 10917 ft 269 kts 78°
2026-05-01 14:11 42.27639 9.05367 10928 ft 269 kts 78°
2026-05-01 14:11 42.27918 9.07871 10929 ft 270 kts 78°
2026-05-01 14:12 42.28191 9.10340 10956 ft 268 kts 78°
2026-05-01 14:12 42.28468 9.12834 10962 ft 269 kts 78°
2026-05-01 14:12 42.28745 9.15338 10963 ft 269 kts 78°
2026-05-01 14:12 42.29021 9.17841 10961 ft 270 kts 78°
2026-05-01 14:13 42.29297 9.20354 10957 ft 270 kts 78°
2026-05-01 14:13 42.29483 9.22048 10961 ft 270 kts 78°
2026-05-01 14:13 42.29848 9.25370 10977 ft 270 kts 78°
2026-05-01 14:13 42.30122 9.27887 10974 ft 270 kts 78°
2026-05-01 14:14 42.30394 9.30392 10967 ft 267 kts 78°
2026-05-01 14:14 42.30665 9.32867 10969 ft 267 kts 78°
2026-05-01 14:14 42.30937 9.35355 10978 ft 269 kts 79°
2026-05-01 14:14 42.31207 9.37868 10765 ft 270 kts 78°
2026-05-01 14:15 42.31478 9.40395 10430 ft 271 kts 78°
2026-05-01 14:15 42.31752 9.42910 9815 ft 267 kts 78°
2026-05-01 14:15 42.32016 9.45374 9432 ft 268 kts 78°
2026-05-01 14:15 42.32273 9.47857 9088 ft 265 kts 79°
2026-05-01 14:16 42.32537 9.50301 8726 ft 261 kts 78°
2026-05-01 14:16 42.32876 9.52706 8379 ft 261 kts 71°
2026-05-01 14:16 42.33595 9.54947 8042 ft 258 kts 58°
2026-05-01 14:16 42.34644 9.56878 7702 ft 254 kts 47°
2026-05-01 14:17 42.35980 9.58451 7367 ft 256 kts 34°
2026-05-01 14:17 42.37539 9.59589 7034 ft 255 kts 23°
2026-05-01 14:17 42.39215 9.60353 6698 ft 253 kts 19°
2026-05-01 14:17 42.40698 9.61571 6337 ft 253 kts 46°
2026-05-01 14:18 42.41380 9.63631 6024 ft 236 kts 81°
2026-05-01 14:18 42.40985 9.65739 5742 ft 237 kts 118°
2026-05-01 14:18 42.39686 9.67098 5466 ft 244 kts 156°
2026-05-01 14:18 42.38564 9.67302 5225 ft 251 kts 180°
2026-05-01 14:19 42.36564 9.65884 4752 ft 250 kts 231°
2026-05-01 14:19 42.35902 9.63765 4468 ft 246 kts 262°
2026-05-01 14:19 42.35848 9.61468 4176 ft 244 kts 278°
2026-05-01 14:19 42.36250 9.59274 3864 ft 239 kts 295°
2026-05-01 14:20 42.37073 9.57351 3557 ft 235 kts 311°
2026-05-01 14:20 42.39617 9.54861 2950 ft 221 kts 342°
2026-05-01 14:20 42.41026 9.54303 2667 ft 200 kts 347°
2026-05-01 14:21 42.42313 9.53785 2416 ft 184 kts 345°
2026-05-01 14:21 42.43475 9.53295 2388 ft 169 kts 345°
2026-05-01 14:21 42.44605 9.52819 2408 ft 172 kts 346°
2026-05-01 14:22 42.46577 9.51967 2069 ft 138 kts 345°
2026-05-01 14:22 42.47462 9.51590 1824 ft 123 kts 344°
2026-05-01 14:22 42.48227 9.51231 1523 ft 114 kts 342°
2026-05-01 14:22 42.48960 9.50881 1275 ft 103 kts 345°
2026-05-01 14:23 42.49613 9.50638 1021 ft 97 kts 346°
2026-05-01 14:23 42.50214 9.50451 965 ft 74 kts 342°
2026-05-01 14:23 42.50711 9.50245 795 ft 76 kts 343°
2026-05-01 14:23 42.51166 9.50051 652 ft 69 kts 345°
2026-05-01 14:24 42.51684 9.49836 664 ft 73 kts 342°
2026-05-01 14:24 42.52182 9.49621 495 ft 76 kts 343°
2026-05-01 14:24 42.52679 9.49391 382 ft 75 kts 346°
2026-05-01 14:24 42.53188 9.49186 268 ft 76 kts 341°
2026-05-01 14:25 42.53705 9.49015 176 ft 78 kts 345°
2026-05-01 14:25 42.54239 9.48803 68 ft 77 kts 343°
2026-05-01 14:25 42.54691 9.48614 33 ft 57 kts 342°
2026-05-01 14:25 42.54949 9.48501 34 ft 15 kts 341°
2026-05-01 14:26 42.54976 9.48400 33 ft 12 kts 255°
2026-05-01 14:26 42.54943 9.48105 32 ft 22 kts 268°
2026-05-01 14:26 42.54925 9.47956 32 ft 11 kts 223°
2026-05-01 14:27 42.54908 9.47913 32 ft 7 kts 352°
2026-05-01 14:27 42.54924 9.47910 32 ft 0 kts 352°